Find Starlink 3738

NORAD ID: 52117 Int'l Des: 2022-029 Owner: SPXS Country: US Constellation: starlink operational
LEOCIRCULAR

当前视图

正在加载3D地球...

About Starlink 3738

Starlink 3738 (NORAD 52117) is a starlink constellation satellite (v1.5) launched Mar 19, 2022 by SPXS of US. It operates in LEO, CIRCULAR orbit with a mass of 297.00 kg.

关于 Starlink 3738

正在加载描述...

即将过境

Passes for default location (London). Set your location on the main map for personalized predictions.

高度历史

Loading altitude history...

两行轨道根数

1 52117U 22029AF 26194.83335647 -.00008638 00000-0 -25157-3 0 9992
2 52117 53.1601 230.2902 0001267 83.0391 306.5846 15.33553219 5837
Epoch: Jul 13, 2026 • Age: 10 hours

当前状态

高度 467.9 km
远地点 / 近地点 N/A
速度 7.64 km/s
星下点 38.47°N, 7.29°W
发射日期 Mar 19, 2022
运行时间 4.3 years
类型 internet

技术详情

分类 Payload
质量 297.00 kg
干质量 275.00 kg
总质量 297.00 kg
长度 0.20 m
直径 2.80 m
跨度 9.00 m
形状 Box + pan
制造商 SPXS
平台类型 Starlink
阶段状态 In Orbit
所有者/国家 SPXS/US

Most Searched